Weather in Miamisburg

United States     39°38′29″N   84°17′10″W
temp.,
°C
wind,
m/s
gust,
m/s
humid.,
%
clouds,
%
prec.,
mm/h
press.,
hPa
HPBL,
m
26 may, thu
thu2623:00+19s31195100 1.3 1014383
02:00+19s51691100 2.0 10151124
05:00+19s51494100 0.2 1014963
08:00+17s5129699 2.2 1014668
11:00+19s61394100 2.5 10141020
14:00+23s71177100 3.1 10121132
17:00+19sse51096100 7.3 1010706
20:00+18sse51194100 11.0 1009571
27 may, fri
fri2723:00+18s51291100 1.0 1009564
02:00+16ssw41197100 2.1 1008505
05:00+15s4109739 0.3 1008393
08:00+15s499327 0.3 1009554
11:00+17ssw577656 0.6 1008964
14:00+18sw677062 2.1 10081321
17:00+18sw567196 1.4 10081195
20:00+16wsw378631 2.4 1008253
28 may, sat
sat2823:00+14w3895100 0.6 1009264
02:00+12w5996100 0.8 1009377
05:00+13wnw4995100 0.0 1010441
08:00+14nw3894100 0.1 1012441
11:00+16nw2387100 0.1 1013526
14:00+20w326878 0.3 10131179
17:00+20wsw3474100 0.1 1013466
20:00+18sw258013 0.1 1013153
29 may, sun
sun2923:00+15s22865 0.0 101436
02:00+14s24905 0.0 101485
05:00+13s23945 0.0 101551
08:00+15s37888 0.0 1016237
11:00+21s58715 0.0 1015676
14:00+25ssw575677 0.0 10141114
17:00+27sw585799 0.0 10131239
20:00+23ssw51274100 0.0 1013464
30 may, mon
mon3023:00+21s61576100 0.0 1013451
02:00+19s2785100 0.0 1015165
05:00+18s398689 0.0 1016203
08:00+19ssw4118436 0.0 1019315
11:00+25sw610647 0.0 1019586
14:00+28sw68545 0.0 1019973
17:00+28wsw57570 0.0 10181016
20:00+25sw36755 0.0 1019210